Location: Trout Lake
(45.9980°N, 121.5270°W)
Time: 18:32:32
(UTC-08:00)

Cosmos-2242 - Pass Details

Date: 06 December 2023
Orbit: 582 x 606 km, 82.5° (Epoch: 22 February)

Event Time Altitude Azimuth Distance (km) Brightness Sun altitude
Rises 17:40:00 0° 192° (SSW) 2,852 6.9 -13.2°
Reaches altitude 10° 17:42:13 10° 194° (SSW) 1,951 6.1 -13.5°
Maximum altitude 17:46:32 75° 279° (W) 632 3.2 -14.2°
Drops below altitude 10° 17:50:52 10° 6° (N) 1,958 5.4 -15.0°
Enters shadow 17:53:01 - 8° (N) 2,832 6.2 -15.3°
